Location: Kutna Hora
(49.9500°N, 15.2670°E)
Time: 20:55:16
(UTC+01:00)

ISS - Visible Passes

Search period start: 09 December 2018 00:00
Search period end: 19 December 2018 00:00
Orbit: 401 x 408 km, 51.6° (Epoch: 10 December)

Date Brightness Start Highest point End Pass type
(mag) Time Alt. Az. Time Alt. Az. Time Alt. Az.
09 Dec -3.9 16:46:05 10° WNW 16:49:21 80° NNE 16:52:38 10° ESE visible
09 Dec -2.3 18:22:43 10° W 18:25:40 31° SSW 18:25:53 31° SSW visible
10 Dec -2.9 17:30:24 10° WNW 17:33:34 47° SSW 17:36:17 13° SE visible
10 Dec -0.4 19:08:49 10° SW 19:09:00 10° SW 19:09:00 10° SW visible
11 Dec -3.5 16:38:08 10° WNW 16:41:24 70° SSW 16:44:39 10° ESE visible
11 Dec -1.0 18:15:14 10° W 18:17:27 17° SW 18:19:40 10° S visible
12 Dec -1.6 17:22:36 10° W 17:25:25 27° SW 17:28:13 10° SSE visible
14 Dec -0.6 17:15:14 10° WSW 17:17:06 14° SW 17:18:58 10° S visible
